Temp
-23 -21 -19 -17 -17 -17 -16 -15 -14 -13 -13 -14 -13 -13 -12 -12 -11 -11 -11 -11 -11 -10 -10 -10 -10 -10 -10 -10 -10 -10 -9 -10 -10 -10 -10 -10 -10 -10 -10 -10 -9 -9 -9 -9 -9
-23 -21 -18 -18 -18 -17 -17 -15 -14 -13 -13 -14 -14 -13 -12 -12 -11 -11 -12 -11 -11 -11 -10 -10 -10 -10 -10 -10 -10 -10 -10 -10 -10 -10 -10 -10 -10 -10 -10 -10 -9 -9 -9 -9 -9
-21 -21 -19 -17 -18 -17 -16 -15 -14 -13 -13 -14 -14 -13 -13 -12 -12 -12 -12 -12 -11 -11 -11 -11 -10 -10 -10 -10 -10 -10 -10 -10 -10 -10 -10 -10 -10 -10 -10 -10 -9 -10 -9 -9 -9
-20 -20 -18 -18 -17 -16 -17 -15 -15 -14 -13 -14 -14 -13 -13 -12 -12 -12 -12 -12 -11 -11 -11 -11 -11 -11 -11 -11 -10 -10 -10 -10 -10 -10 -10 -10 -10 -10 -10 -10 -10 -10 -10 -9 -9
-20 -19 -18 -17 -17 -16 -16 -15 -15 -14 -14 -14 -14 -13 -13 -13 -12 -12 -12 -12 -12 -11 -11 -11 -11 -11 -11 -11 -11 -10 -10 -10 -10 -10 -10 -10 -10 -10 -10 -9 -9 -9 -9 -9 -9
-20 -19 -19 -17 -17 -16 -15 -16 -16 -15 -14 -14 -14 -14 -13 -13 -13 -12 -12 -12 -12 -12 -12 -11 -11 -11 -11 -11 -11 -11 -10 -10 -10 -10 -10 -10 -10 -10 -10 -9 -9 -9 -9 -9 -9
-19 -18 -17 -16 -16 -17 -16 -16 -16 -15 -15 -14 -14 -14 -13 -13 -13 -12 -12 -12 -12 -12 -12 -12 -11 -11 -11 -11 -11 -11 -10 -10 -10 -10 -10 -10 -10 -10 -9 -9 -10 -10 -10 -10 -9
-17 -17 -17 -17 -17 -17 -16 -16 -16 -16 -15 -15 -15 -14 -13 -13 -13 -13 -13 -12 -12 -12 -12 -12 -12 -12 -11 -11 -11 -11 -11 -11 -10 -10 -10 -10 -11 -10 -10 -10 -10 -10 -10 -10 -10
-17 -16 -17 -17 -17 -17 -17 -16 -16 -16 -16 -15 -15 -14 -14 -13 -13 -13 -13 -13 -13 -12 -12 -12 -12 -12 -12 -11 -11 -11 -11 -11 -11 -11 -11 -11 -11 -11 -10 -10 -11 -11 -11 -11 -11
-17 -17 -16 -16 -17 -17 -17 -17 -16 -16 -16 -15 -15 -14 -14 -14 -14 -13 -13 -13 -13 -13 -13 -13 -12 -12 -12 -12 -12 -12 -12 -12 -11 -11 -12 -11 -12 -12 -11 -11 -11 -11 -11 -12 -13
-16 -16 -16 -17 -17 -16 -16 -16 -16 -16 -16 -15 -15 -15 -15 -14 -14 -14 -13 -13 -13 -13 -13 -13 -13 -13 -13 -13 -12 -12 -12 -12 -12 -11 -12 -12 -12 -12 -12 -12 -12 -13 -13 -12 -12
-16 -16 -16 -16 -16 -16 -16 -16 -15 -16 -16 -16 -15 -15 -15 -14 -14 -14 -14 -14 -14 -14 -13 -13 -13 -13 -13 -13 -13 -13 -12 -12 -12 -12 -12 -12 -12 -13 -13 -13 -13 -12 -12 -12 -12
-15 -15 -15 -15 -15 -15 -14 -14 -15 -15 -15 -15 -15 -15 -15 -14 -14 -14 -14 -14 -14 -14 -14 -14 -14 -14 -14 -14 -13 -13 -13 -12 -13 -13 -13 -13 -13 -13 -13 -13 -13 -13 -13 -13 -13
-15 -15 -14 -14 -15 -15 -14 -15 -15 -15 -14 -14 -14 -14 -14 -14 -14 -14 -14 -14 -14 -14 -14 -14 -14 -14 -14 -13 -13 -13 -13 -13 -13 -13 -13 -13 -13 -13 -13 -13 -13 -13 -13 -13 -12
-15 -15 -15 -15 -15 -15 -15 -15 -15 -15 -15 -15 -15 -15 -15 -15 -14 -14 -14 -14 -14 -14 -14 -14 -14 -14 -13 -14 -14 -14 -14 -14 -13 -13 -13 -13 -13 -13 -13 -13 -13 -13 -13 -13 -13
-15 -15 -15 -15 -14 -14 -15 -16 -15 -15 -15 -15 -15 -15 -14 -14 -14 -14 -14 -14 -14 -14 -14 -14 -14 -14 -14 -14 -14 -14 -14 -14 -13 -13 -13 -13 -13 -13 -13 -13 -13 -13 -13 -13 -13
-15 -15 -15 -15 -15 -15 -16 -15 -15 -15 -15 -15 -15 -15 -15 -15 -15 -14 -14 -14 -14 -14 -14 -14 -14 -14 -14 -14 -14 -14 -14 -13 -13 -13 -13 -13 -13 -13 -13 -13 -13 -13 -13 -13 -13
-15 -15 -15 -16 -15 -15 -15 -15 -15 -15 -15 -15 -15 -15 -15 -14 -14 -14 -14 -14 -14 -14 -14 -14 -14 -14 -14 -14 -14 -13 -13 -13 -13 -13 -13 -13 -13 -13 -13 -13 -13 -13 -13 -13 -13
-15 -15 -15 -15 -15 -15 -15 -15 -14 -14 -14 -14 -14 -14 -14 -14 -14 -14 -14 -14 -14 -14 -14 -14 -14 -14 -14 -14 -14 -14 -14 -14 -13 -13 -13 -13 -13 -13 -13 -13 -13 -13 -13 -13 -13
-14 -14 -14 -14 -14 -14 -14 -14 -14 -14 -14 -14 -14 -14 -14 -13 -13 -14 -14 -14 -14 -14 -14 -14 -14 -14 -14 -13 -13 -13 -13 -14 -14 -13 -13 -13 -13 -13 -13 -13 -13 -13 -13 -13 -13
-14 -14 -13 -14 -14 -14 -14 -14 -14 -13 -13 -13 -13 -14 -13 -13 -13 -13 -13 -13 -13 -13 -13 -13 -13 -13 -13 -13 -13 -13 -13 -13 -13 -13 -13 -13 -13 -13 -13 -13 -13 -13 -13 -13 -13
-13 -13 -13 -13 -13 -13 -13 -13 -13 -13 -13 -13 -13 -13 -13 -13 -13 -13 -13 -13 -13 -13 -13 -13 -13 -13 -13 -13 -13 -12 -12 -13 -13 -12 -12 -12 -13 -12 -12 -13 -13 -13 -13 -13 -13
-13 -13 -13 -13 -13 -13 -13 -13 -13 -13 -13 -13 -13 -13 -13 -13 -13 -13 -13 -13 -13 -13 -13 -13 -13 -13 -13 -13 -13 -13 -13 -13 -13 -13 -13 -12 -12 -12 -12 -13 -13 -13 -13 -13 -13
-12 -12 -12 -13 -12 -12 -12 -13 -13 -13 -13 -13 -13 -13 -13 -13 -13 -13 -13 -13 -13 -13 -13 -13 -13 -13 -13 -13 -13 -13 -13 -13 -13 -13 -12 -13 -12 -13 -12 -13 -13 -13 -13 -13 -13
-12 -12 -12 -12 -12 -13 -13 -12 -12 -12 -13 -13 -13 -13 -12 -12 -12 -12 -13 -13 -13 -13 -13 -13 -13 -13 -13 -13 -13 -13 -13 -13 -13 -13 -12 -13 -12 -13 -13 -13 -13 -13 -13 -13 -13
-12 -12 -12 -12 -12 -12 -12 -12 -12 -12 -12 -12 -12 -13 -12 -12 -12 -12 -12 -12 -13 -13 -12 -12 -12 -12 -12 -13 -13 -12 -13 -13 -13 -13 -13 -13 -13 -12 -12 -12 -13 -13 -13 -13 -13
-12 -12 -12 -12 -12 -12 -12 -12 -12 -12 -13 -13 -12 -12 -12 -12 -12 -13 -13 -13 -12 -13 -13 -13 -13 -13 -12 -12 -12 -12 -13 -13 -13 -13 -13 -13 -13 -12 -13 -13 -13 -13 -12 -13 -12
Height
5570 5586 5600 5624 5638 5648 5663 5675 5693 5709 5722 5732 5742 5752 5761 5769 5777 5785 5791 5799 5803 5808 5813 5817 5820 5823 5825 5827 5828 5829 5830 5831 5831 5832 5832 5832 5834 5834 5835 5836 5836 5837 5837 5838 5837
5576 5587 5605 5622 5637 5653 5661 5674 5693 5708 5719 5731 5741 5751 5760 5768 5775 5782 5789 5795 5801 5805 5809 5812 5815 5818 5821 5823 5824 5825 5826 5827 5828 5829 5830 5830 5831 5832 5832 5832 5832 5833 5832 5833 5833
5587 5597 5612 5626 5640 5653 5663 5678 5692 5706 5718 5730 5741 5751 5759 5767 5774 5780 5786 5791 5797 5802 5806 5809 5812 5815 5818 5820 5821 5822 5823 5824 5825 5826 5827 5827 5828 5828 5828 5826 5828 5828 5827 5826 5826
5602 5612 5623 5633 5645 5659 5668 5678 5691 5705 5719 5730 5740 5750 5758 5767 5774 5779 5784 5790 5794 5799 5803 5805 5809 5812 5814 5816 5817 5819 5819 5820 5821 5822 5823 5823 5824 5824 5823 5824 5823 5821 5820 5819 5818
5615 5622 5632 5644 5658 5668 5677 5684 5694 5705 5717 5729 5740 5750 5759 5766 5772 5778 5783 5788 5793 5798 5801 5804 5807 5810 5811 5814 5814 5815 5816 5816 5817 5817 5818 5818 5818 5818 5818 5818 5817 5816 5815 5813 5811
5629 5637 5649 5655 5666 5673 5681 5687 5697 5707 5718 5730 5740 5749 5758 5765 5771 5777 5783 5787 5792 5796 5799 5803 5804 5807 5808 5810 5811 5812 5812 5812 5813 5813 5813 5813 5813 5812 5812 5810 5809 5808 5806 5804 5802
5644 5649 5657 5667 5674 5680 5686 5693 5700 5710 5721 5731 5741 5749 5757 5764 5770 5776 5781 5785 5790 5793 5797 5799 5801 5804 5805 5806 5807 5807 5808 5808 5808 5808 5807 5807 5806 5805 5804 5802 5800 5798 5795 5793 5792
5653 5661 5669 5677 5684 5687 5692 5696 5704 5712 5722 5732 5742 5750 5757 5764 5769 5775 5780 5784 5787 5791 5794 5796 5798 5799 5800 5801 5802 5802 5803 5802 5802 5801 5800 5800 5799 5797 5795 5794 5790 5786 5785 5783 5780
5667 5674 5681 5687 5691 5695 5698 5703 5708 5716 5725 5734 5743 5751 5758 5763 5768 5773 5778 5781 5785 5788 5790 5792 5794 5795 5795 5796 5797 5796 5796 5796 5795 5795 5793 5792 5790 5787 5786 5786 5782 5779 5776 5773 5769
5682 5687 5691 5695 5698 5701 5705 5708 5713 5718 5727 5736 5743 5753 5758 5763 5768 5772 5776 5779 5782 5785 5787 5788 5789 5790 5790 5791 5791 5791 5791 5790 5788 5789 5786 5784 5784 5780 5778 5777 5773 5770 5766 5762 5759
5696 5699 5700 5703 5707 5711 5713 5715 5721 5725 5730 5738 5745 5751 5757 5763 5767 5771 5774 5777 5779 5782 5784 5784 5785 5786 5786 5786 5786 5786 5785 5784 5782 5782 5781 5779 5777 5774 5771 5769 5766 5763 5760 5757 5754
5709 5710 5713 5716 5717 5718 5720 5722 5725 5731 5737 5742 5748 5753 5757 5762 5767 5770 5773 5776 5777 5779 5780 5782 5782 5782 5782 5781 5781 5780 5780 5778 5777 5776 5775 5773 5771 5769 5768 5765 5762 5759 5756 5752 5748
5723 5725 5726 5727 5728 5729 5729 5731 5733 5737 5743 5748 5752 5757 5761 5765 5767 5769 5771 5773 5775 5776 5777 5777 5778 5777 5777 5776 5776 5775 5774 5773 5773 5771 5770 5769 5768 5765 5763 5760 5757 5755 5752 5750 5745
5734 5735 5735 5736 5739 5738 5738 5740 5742 5745 5749 5753 5755 5759 5761 5763 5766 5768 5770 5772 5772 5773 5774 5775 5775 5774 5774 5773 5773 5771 5770 5770 5769 5769 5768 5766 5765 5760 5758 5756 5755 5753 5751 5747 5743
5743 5743 5744 5745 5745 5746 5746 5748 5750 5752 5754 5757 5758 5760 5762 5765 5767 5768 5769 5770 5771 5772 5774 5773 5772 5771 5771 5771 5770 5769 5769 5768 5768 5767 5765 5763 5761 5757 5755 5755 5754 5752 5750 5746 5741
5751 5751 5752 5751 5751 5752 5751 5752 5754 5755 5755 5758 5759 5761 5764 5765 5767 5768 5769 5770 5771 5771 5771 5770 5770 5770 5770 5770 5770 5769 5768 5767 5766 5765 5763 5760 5758 5756 5754 5753 5752 5751 5748 5745 5741
5756 5756 5757 5756 5756 5755 5755 5756 5757 5757 5758 5760 5761 5762 5764 5766 5767 5768 5769 5770 5770 5771 5771 5771 5771 5771 5770 5770 5769 5768 5767 5766 5765 5763 5762 5760 5758 5756 5754 5753 5752 5751 5747 5745 5741
5762 5761 5760 5759 5759 5759 5759 5760 5760 5759 5760 5762 5763 5765 5767 5768 5769 5770 5770 5770 5770 5771 5771 5771 5772 5771 5770 5769 5769 5767 5766 5765 5762 5761 5760 5759 5759 5758 5756 5754 5752 5749 5747 5744 5741
5767 5767 5766 5765 5764 5764 5764 5764 5765 5764 5765 5766 5767 5768 5769 5769 5770 5771 5771 5771 5771 5772 5773 5772 5772 5771 5770 5769 5768 5766 5765 5764 5761 5759 5759 5759 5759 5757 5755 5753 5751 5748 5745 5742 5738
5772 5772 5771 5771 5770 5770 5770 5769 5769 5768 5768 5769 5769 5769 5770 5771 5772 5772 5772 5773 5773 5773 5773 5773 5772 5771 5770 5769 5768 5766 5765 5764 5761 5759 5758 5758 5757 5756 5754 5752 5749 5746 5742 5738 5734
5778 5777 5776 5775 5775 5774 5774 5774 5774 5774 5774 5774 5773 5773 5773 5774 5774 5774 5775 5775 5775 5774 5773 5772 5772 5772 5770 5768 5767 5766 5764 5762 5760 5759 5758 5757 5757 5754 5751 5749 5746 5742 5739 5735 5731
5782 5781 5780 5779 5778 5777 5777 5776 5776 5776 5776 5777 5777 5777 5777 5777 5776 5776 5775 5775 5774 5773 5772 5772 5770 5769 5768 5767 5765 5763 5762 5760 5759 5759 5756 5755 5755 5751 5749 5746 5742 5738 5735 5731 5727
5785 5784 5783 5782 5781 5780 5779 5778 5778 5778 5778 5778 5779 5779 5778 5778 5779 5777 5776 5775 5775 5774 5772 5771 5770 5768 5767 5766 5764 5762 5760 5759 5757 5755 5754 5751 5751 5746 5744 5742 5738 5735 5732 5728 5723
5787 5785 5784 5783 5782 5782 5781 5780 5780 5780 5780 5779 5779 5779 5778 5778 5778 5777 5776 5775 5774 5773 5771 5770 5769 5768 5767 5765 5763 5761 5759 5757 5755 5753 5751 5750 5748 5742 5739 5737 5734 5731 5728 5723 5719
5785 5784 5783 5782 5782 5781 5781 5781 5781 5780 5780 5779 5778 5778 5777 5776 5776 5775 5774 5773 5772 5771 5770 5769 5767 5765 5763 5761 5760 5759 5756 5754 5752 5749 5747 5746 5742 5738 5734 5732 5729 5726 5722 5717 5713
5782 5781 5780 5780 5780 5780 5780 5780 5779 5779 5778 5777 5777 5776 5774 5774 5773 5772 5771 5769 5768 5767 5766 5765 5764 5762 5761 5757 5755 5755 5751 5748 5746 5743 5740 5739 5738 5730 5730 5726 5724 5720 5717 5712 5707
5777 5776 5776 5776 5776 5776 5776 5775 5775 5774 5774 5772 5772 5771 5770 5769 5769 5768 5767 5765 5765 5763 5760 5759 5757 5754 5755 5753 5750 5750 5746 5742 5739 5736 5731 5730 5728 5725 5723 5719 5717 5712 5710 5706 5702
Wind_Speed
42 54 63 54 54 46 54 53 57 50 46 46 45 44 40 39 36 35 34 34 34 30 27 25 23 22 23 25 25 24 22 21 20 19 19 20 19 19 19 18 20 22 21 21 22
43 64 72 38 46 44 44 49 56 54 47 45 44 42 39 36 34 32 29 28 29 29 27 24 22 22 21 20 19 18 16 16 16 16 17 18 18 20 22 23 24 24 27 27 28
46 51 51 42 42 37 39 39 48 53 47 44 42 40 38 35 32 29 28 28 27 26 25 24 22 21 20 18 18 17 16 17 18 18 19 20 22 24 26 29 28 30 32 33 34
45 45 49 38 48 43 34 35 48 52 48 43 42 39 36 33 31 29 28 27 27 26 25 24 24 23 22 21 20 19 20 21 22 22 22 24 26 28 30 32 33 36 37 40 42
43 47 46 35 44 37 32 31 44 50 48 43 40 38 35 33 31 29 28 26 25 25 24 23 23 22 21 22 22 22 22 24 26 28 29 31 33 34 35 37 39 41 43 43 45
34 50 40 29 38 30 27 30 33 45 47 42 40 38 35 33 31 29 27 26 24 23 22 23 22 23 22 23 25 26 27 28 29 30 32 34 36 38 40 43 44 45 45 46 47
49 32 34 45 29 32 29 28 34 44 42 40 39 38 36 35 32 30 28 27 25 24 23 22 22 23 24 26 27 28 29 31 32 33 35 37 38 41 43 43 43 44 47 49 49
36 44 42 32 33 31 28 28 35 41 44 40 39 37 35 34 32 31 29 27 26 26 26 24 25 27 28 29 30 31 31 32 33 34 36 37 36 40 42 45 43 46 46 46 48
45 42 37 34 29 23 22 27 33 38 40 40 38 36 34 33 32 31 30 28 28 28 27 26 27 29 28 30 31 30 32 32 34 34 36 37 38 40 41 40 41 43 45 48 50
48 41 36 29 25 21 20 20 32 40 39 38 38 36 33 32 31 30 29 29 29 29 28 28 28 29 29 30 30 31 32 33 35 36 35 35 33 35 37 40 42 44 41 38 33
40 35 31 26 22 20 18 17 22 36 41 38 36 35 31 30 30 30 30 29 30 30 30 29 29 30 30 30 32 35 34 32 31 29 29 31 33 35 35 32 27 28 30 32 35
40 37 31 27 28 30 28 23 22 24 30 31 31 30 29 29 28 29 29 29 30 30 29 28 31 32 32 31 28 27 26 26 27 29 30 30 27 20 20 23 26 29 30 29 23
45 44 41 40 38 37 39 36 33 26 22 22 21 22 21 21 21 23 23 25 26 26 26 26 25 24 22 21 22 23 25 27 27 28 21 11 14 18 20 23 26 21 19 18 20
43 40 38 34 28 30 31 28 28 25 24 21 16 14 15 13 12 11 11 13 12 13 15 16 17 18 19 21 22 24 25 21 11 10 10 12 15 20 21 17 13 12 10 12 17
40 34 32 29 25 21 21 21 18 15 12 12 13 13 11 10 9 11 10 11 10 11 13 15 16 18 18 15 9 6 5 8 7 8 11 12 14 14 9 7 3 7 11 15 20
25 24 21 20 18 12 9 8 8 7 15 11 11 9 6 7 6 5 5 7 9 10 7 6 5 3 3 3 3 2 4 6 8 8 9 9 5 2 6 7 9 7 10 14 17
11 12 13 12 10 8 8 9 11 13 15 13 12 10 8 8 8 8 9 9 9 7 6 4 2 2 2 2 3 4 6 7 8 8 6 2 5 9 12 8 6 7 11 13 16
7 3 6 11 13 12 14 14 16 19 19 18 16 15 15 16 15 12 10 8 5 4 4 2 1 1 4 5 7 9 8 9 9 8 7 8 6 4 3 3 5 7 10 15 18
11 10 11 16 18 18 19 17 18 18 18 17 16 15 15 14 12 11 10 8 5 3 2 0 1 3 3 4 6 6 7 7 7 8 10 8 4 3 3 5 9 13 16 19 23
20 19 19 19 19 18 18 16 18 19 20 21 21 19 17 15 14 12 10 9 8 7 7 6 5 4 4 4 5 6 7 7 8 6 6 9 7 8 9 11 14 17 22 26 28
15 15 15 15 15 16 16 16 17 18 19 19 19 19 19 17 15 12 11 9 8 7 6 5 5 5 5 5 6 6 7 8 8 6 6 8 10 12 16 17 20 23 26 27 28
10 10 10 11 12 12 13 14 14 14 14 14 13 13 12 11 9 8 6 5 5 5 4 5 5 5 5 6 7 8 8 9 9 9 12 13 13 17 18 20 23 25 25 24 24
5 6 7 7 7 7 8 9 10 9 9 8 8 7 6 6 5 5 4 3 3 3 3 3 5 5 6 6 6 7 8 9 10 11 13 15 14 17 16 17 19 20 23 24 24
5 2 1 1 2 3 4 4 4 4 3 2 2 2 4 5 5 4 2 3 4 4 4 5 5 6 7 8 8 8 10 11 11 13 13 12 11 21 21 20 21 23 24 25 26
11 9 8 6 6 5 5 5 5 5 5 6 6 7 8 8 8 6 7 7 8 8 9 9 9 10 12 15 11 13 16 20 19 21 20 17 18 23 24 23 25 25 27 28 28
19 17 15 13 13 13 13 12 11 11 12 13 12 12 13 12 10 11 11 14 14 14 15 15 14 17 14 20 23 20 24 26 26 29 28 27 23 31 27 29 29 30 30 28 30
20 22 23 21 20 19 18 18 17 17 16 18 17 16 17 18 17 17 17 19 19 20 22 22 23 26 20 23 25 25 28 33 31 30 35 34 33 33 32 34 32 34 27 28 28
Wind_Direction
168 163 158 154 180 180 183 197 198 196 198 197 199 200 200 200 204 207 207 215 216 222 222 227 234 241 244 243 244 245 249 255 256 255 250 252 254 259 261 260 262 264 269 273 278
159 168 156 143 150 159 175 185 194 197 194 195 197 198 196 199 200 201 202 206 214 215 214 218 222 225 230 237 239 241 243 248 251 252 251 252 255 260 269 274 273 277 274 275 277
159 171 162 141 158 152 172 178 182 188 189 192 195 196 194 196 195 198 199 199 205 211 213 212 217 223 227 232 239 244 246 251 257 259 259 259 263 268 275 280 283 282 279 277 278
153 153 155 154 153 166 154 167 180 186 190 190 192 193 192 193 193 192 194 200 203 208 214 216 220 226 229 232 238 246 252 258 263 264 266 270 274 277 280 282 284 287 287 287 288
158 156 162 134 155 169 166 165 175 180 180 185 187 192 189 190 191 191 191 197 205 209 213 223 229 234 239 246 248 251 257 261 265 269 272 275 278 281 284 285 285 285 286 287 288
150 150 152 136 131 117 131 167 169 178 183 183 185 187 188 187 190 191 194 198 205 211 220 227 234 241 245 251 256 258 259 263 266 269 273 277 280 282 283 285 287 287 287 286 284
140 123 118 133 125 135 138 146 165 173 174 179 182 185 188 189 192 197 200 204 212 217 225 234 241 248 255 259 262 265 267 271 273 275 278 280 283 283 283 285 285 286 286 286 287
123 120 129 122 126 130 134 145 156 173 172 174 181 186 191 191 196 202 208 213 220 227 233 239 247 253 257 262 266 269 273 275 278 280 281 281 280 280 283 286 285 283 283 283 283
116 123 118 111 119 120 136 154 159 165 173 177 181 187 191 195 198 204 212 218 227 233 236 241 246 250 255 259 264 268 272 274 278 279 279 280 280 280 283 283 281 284 285 285 285
103 113 111 120 112 100 105 136 164 160 170 176 178 184 188 195 202 208 215 222 228 234 237 240 245 249 253 258 263 267 270 273 275 277 278 278 282 285 286 289 289 290 291 290 290
99 109 118 114 109 102 100 100 142 172 170 173 179 184 190 197 204 213 219 225 232 236 241 245 249 253 256 260 266 272 275 277 278 278 281 283 287 288 290 293 291 291 294 297 296
98 104 108 103 104 104 104 111 129 148 170 177 180 185 191 203 211 218 223 230 237 242 246 250 256 261 266 270 272 273 274 278 281 283 286 290 287 285 288 289 294 293 302 304 305
90 86 91 88 91 92 94 93 99 112 141 161 174 185 196 204 215 222 231 237 243 248 254 258 261 263 266 271 275 279 282 282 284 287 286 272 286 288 289 292 296 304 306 311 303
91 87 85 83 85 90 87 89 99 106 117 132 148 163 175 185 197 198 212 225 238 247 255 265 272 278 282 284 286 285 281 284 273 265 280 289 290 286 292 292 299 315 327 339 332
88 84 88 85 80 78 85 102 99 103 116 132 145 158 167 181 189 206 228 240 254 264 267 273 273 273 277 282 283 279 248 264 264 281 300 295 290 296 283 271 342 60 63 41 37
101 83 75 80 78 75 89 69 65 86 118 125 130 141 156 173 173 189 221 239 247 256 261 249 252 226 185 239 263 281 292 293 286 299 300 300 303 221 122 107 113 89 45 28 19
114 91 35 81 89 82 72 84 99 105 110 112 118 122 129 139 144 140 128 135 128 128 128 123 124 150 168 188 272 296 292 278 280 290 293 181 126 115 126 113 79 43 28 12 359
118 163 63 71 72 70 75 85 93 94 98 104 105 107 112 118 119 118 113 108 111 124 138 156 179 218 240 268 279 293 293 298 294 280 231 189 153 156 112 71 12 5 349 344 339
85 87 83 86 85 84 82 81 86 88 88 90 92 98 100 99 100 97 98 96 94 84 71 50 268 279 276 295 322 321 327 328 308 283 221 222 244 252 269 311 327 325 325 325 326
81 81 84 85 84 83 83 85 87 90 94 93 93 94 94 96 96 98 101 100 100 95 90 75 62 50 31 5 352 353 343 334 327 306 240 234 265 287 301 308 314 318 316 319 323
78 83 84 86 87 87 85 85 85 90 96 95 94 96 97 99 101 100 93 89 81 70 59 48 36 28 28 17 9 1 355 355 359 351 294 289 293 300 301 305 309 308 312 317 321
68 75 81 89 89 83 83 78 80 87 93 90 84 83 81 76 69 61 58 56 50 43 30 22 18 16 6 1 349 345 343 338 332 325 316 311 314 310 308 308 306 314 320 325 330
65 71 70 74 73 77 78 79 80 83 87 82 78 70 59 46 30 17 19 21 32 21 360 337 330 332 334 329 328 328 330 330 327 318 312 315 321 308 321 312 314 318 322 324 326
307 327 347 9 32 32 42 51 53 62 53 39 16 349 335 335 337 331 336 332 327 322 312 310 311 311 313 313 313 316 313 309 312 310 308 317 316 300 310 312 314 319 321 319 321
271 275 278 273 279 274 285 289 293 297 299 297 295 296 299 303 306 304 299 300 301 296 298 298 297 300 301 304 302 303 304 305 306 305 304 298 307 295 304 309 311 315 317 315 316
268 267 264 261 267 273 275 274 273 279 285 286 288 285 289 293 293 296 296 295 294 293 295 298 292 290 290 290 297 305 300 300 297 298 299 297 301 298 300 303 305 305 311 308 314
266 265 263 262 266 266 266 269 274 276 277 280 282 281 282 287 288 286 281 282 286 285 286 291 290 290 298 286 291 295 293 293 292 292 291 293 295 295 296 299 300 301 311 310 313